STARLINK-30176, 57477

Orbit data source: Space-Track

STARLINK-30176, 57477 is a payload satellite owned by SpaceX/Seattle (US) in LEO that was launched on Fri, 28 Jul 2023 UTC via an FALCON 9 launch vehicle from the Air Force Eastern Test Range (AFETR). Payload-class satellites include a variety of spacecraft equipped with specific instruments for various scientific and technological missions. These include communications satellites like Starlink; space stations such as the ISS; scientific satellites like the Hubble; Earth observation satellites from companies like Planet Labs, Umbra, and HawkEye 360; GPS; miniature CubeSats for education and research; and military/defense satellites.

Loading next visibility...
Identifier
57477, 2023-107W
Orbit
LEO
Country
Flag of USUS
Related business
Manufacturer
SpaceX/Seattle
Mission
Operational Commercial Communications
Bus & Motor
STARLINK V2M, Unknown motor
Mass
730 kg wet, ~700 kg dry
Launch date (UTC)
2023-07-28 (3 years ago)
Launch vehicle
FALCON 9
Launch site
Air Force Eastern Test Range (AFETR)
Object type
Payload
Rocket body
Debris
Shape & HBR
Box + 2 Pan, 17.7 m
Radar Cross Section
33.884 m², Large (>1 m²)

Expand to show TLE details & history
Last TLE update: 3 days ago

TLE from 3 days ago
0 STARLINK-30176
1 57477U 23107W   26170.91279818  .00018290  00000-0  67222-3 0  9996
2 57477  43.0014 118.5516 0001608 247.3547 112.7135 15.27593833160786
Epoch: 2026-06-19T21:54Z
TLE epoch observation values (Epoch: 2026-06-19T21:54:25.762Z)
Latitude
-0.00001°
Longitude
-118.19071°
Altitude
483.209 km
Speed
7.625 km/s
True Right ascension
07h 54m 12s
True Declination
0° 00' 00"
Sunlit
Object was in daylight at epoch
Visualization orbit readout
Latitude
Unknown
Longitude
Unknown
Altitude
Unknown
Speed
Unknown
Apparent Right ascension
Unknown
Apparent Declination
Unknown
Sunlit
N/A
Visualization observer readout
Local Sidereal Time
21:25:30
Azimuth
Unknown
Elevation
Unknown
Doppler factor
Unknown
Orbital elements
Apogee altitude
486.056 km
Perigee altitude
483.849 km
Semi-major axis
6,863.09 km
Eccentricity
0.00016
Inclination
43.0014°
RAAN
118.5516°
Arg. of periapsis
247.3547°
True anomaly
112.7305°
Mean anomaly
112.7135°
Eccentric anomaly
112.722°
Mean motion
3.81736 °/min
Orbital period
94.31 mins
BSTAR
0.00067222
Loading maneuver chart data...
Computing Atmospheric mass density...

Documentation

Showing up to 5 results
|